Weather Roundup
Issued by NWS Springfield, MO

Home | Current Version | Previous Version | Text Only | Print | Product List | Glossary On
Versions: 1 2 3 4 5 6 7 8 9 10 11 12 13 14 15 16 17 18 19 20 21 22 23 24 25 26 27 28 29 30 31 32 33 34 35 36 37 38 39 40 41 42 43 44 45 46 47 48 49 50
000
NZUS99 KSGF 260759
HRRSGF

HOURLY WEATHER
NATIONAL WEATHER SERVICE SPRINGFIELD MO
200 AM CST MON JAN 26 2015

......SGF CWA......

CITY           SKY/WX    TMP DP  RH WIND       PRES   REMARKS
SPRINGFIELD    CLOUDY    34  28  79 NW10      30.08S WCI  26
JOPLIN         CLEAR     32  27  81 CALM      30.13R
WEST PLAINS    CLOUDY    33  29  85 NW6       30.05R WCI  28
ROLLA          CLOUDY    29  26  89 NW10      30.03S WCI  20
OSAGE BEACH    CLOUDY    32  27  80 NW7       30.08S WCI  26

......SURROUNDING SGF CWA......

CITY           SKY/WX    TMP DP  RH WIND       PRES   REMARKS
CHANUTE        CLEAR     28  26  92 W5        30.13R WCI  23
PARSONS        CLEAR     25  23  92 CALM      30.14S
COFFEYVILLE    CLEAR     28  26  92 CALM      30.15S
EMPORIA        PTCLDY    29  26  89 W3        30.12R
SILOAM SPRINGS CLOUDY    37  25  60 N7        30.12S WCI  32
HARRISON AR    CLOUDY    37  32  82 NW10      30.07S WCI  30
NEAR YELLVILLE CLOUDY    37  27  65 N12       30.08S WCI  30

......KANSAS AND MISSOURI......

CITY           SKY/WX    TMP DP  RH WIND       PRES   REMARKS
KANSAS CTY INT CLEAR     29  27  92 CALM      30.09S
DOWNTOWN KC    CLEAR     28  26  92 CALM      30.10S
COLUMBIA       CLOUDY    30  26  85 N7        30.07S WCI  23
SEDALIA        CLOUDY    33  28  81 CALM      30.09F
ST JOSEPH      PTCLDY    24  23  96 S7        30.09F WCI  16
ST LOUIS       MOCLDY    29  20  69 NW12      30.04R WCI  19
SPIRIT OF STL  MOCLDY    29  21  72 NW8G21    30.05R WCI  21
KIRKSVILLE     CLOUDY    30  26  85 CALM      30.06S
WICHITA        PTCLDY    27  24  89 W5        30.14S WCI  22
TOPEKA         CLEAR     26  24  92 CALM      30.11S
OLATHE         FAIR      27  25  92 CALM      30.09R

......TENNESSEE......

CITY           SKY/WX    TMP DP  RH WIND       PRES   REMARKS
MEMPHIS        CLOUDY    42  33  70 NW14G25   29.98R
NASHVILLE      CLOUDY    40  37  89 NW17G29   29.80R WCI  31

......ARKANSAS.......

CITY           SKY/WX    TMP DP  RH WIND       PRES   REMARKS
FAYETTEVILLE   CLOUDY    37  30  75 N8        30.11S WCI  31
FT SMITH       PTCLDY    38  29  70 CALM      30.12F
LITTLE ROCK    PTCLDY    42  31  64 NW8       30.08R

......OKLAHOMA.......

CITY           SKY/WX    TMP DP  RH WIND       PRES   REMARKS
TULSA          CLEAR     31  28  89 NW3       30.16R
PONCA CITY     PTCLDY    25  20  81 CALM      30.17F
MCALESTER      PTCLDY    30  27  88 CALM      30.18R
OKLAHOMA CITY  PTCLDY    30  24  78 SW3       30.18R

......IOWA............

CITY           SKY/WX    TMP DP  RH WIND       PRES   REMARKS
DES MOINES     CLOUDY    32  24  72 SW6       30.03S WCI  26
QUAD CITIES    MOCLDY    18  11  74 CALM      30.05F

......ILLINOIS........

CITY           SKY/WX    TMP DP  RH WIND       PRES   REMARKS
QUINCY         CLOUDY    25  20  81 NW7       30.06R WCI  17
CHICAGO        MOCLDY    24  15  68 NE12      29.98S WCI  13



USA.gov is the U.S. government's official web portal to all federal, state and local government web resources and services.